Torna al catalogo

STARLINK-36302

AttivoComunicazioniVLEO
NORAD 68524·PAYLOAD·🇺🇸 United States

Lanciato Mar 30, 2026 da Cape Canaveral Space Force Station

Loading…

Prossimi Passaggi (prossime 24 ore)

TLE

AggiornatoSource: CelesTrak SupGP

Epoca: Sep 14, 2026, 22:45 UTC

1 68524C 26068S   26257.94840278  .00017254  00000+0  51002-3 0  2577
2 68524  53.1585 325.6934 0001240  83.4665 310.0399 15.34366793    18

Traccia STARLINK-36302 in tempo reale con AllMySat

Download on the App Store